Location: Lafig�re
(44.4503°N, 4.0357°E)
Time: 05:21:46
(UTC+00:00)

Transit 2A Rocket - Pass Details

Date: 21 June 2021
Orbit: 590 x 913 km, 66.7° (Epoch: 26 July)

Event Time Altitude Azimuth Distance (km) Brightness Sun altitude
Exits shadow 22:34:16 16° 91° (E) 1,604 6.5 -20.2°
Drops below altitude 10° 22:36:01 10° 68° (ENE) 1,950 7.2 -20.3°
Sets 22:38:59 0° 48° (NE) 2,895 8.3 -20.4°
